FW2710 Weather Reports


Display with metric or nautical units.
time (UTC)temp
F
wind
direction
speed
MPH
gust
MPH
rain 1hr
in
rain 24hr
in
rain mn
in
humidity
%
barometer
mb
20200713150506 75 65 4.0 7.0 0.00 0.00 0.00 67 1016.4
20200713150015 75 95 4.0 7.0 0.00 0.00 0.00 67 1016.5
20200713145507 75 58 5.0 8.0 0.00 0.00 0.00 68 1016.5
20200713145005 75 61 5.0 8.0 0.00 0.00 0.00 66 1016.5
20200713144521 74 79 4.0 8.0 0.00 0.00 0.00 66 1016.5
20200713144005 74 113 4.0 8.0 0.00 0.00 0.00 71 1016.5
20200713143505 74 91 3.0 5.0 0.00 0.00 0.00 69 1016.6
20200713143010 74 91 3.0 5.0 0.00 0.00 0.00 68 1016.6
20200713142505 73 81 4.0 6.0 0.00 0.00 0.00 71 1016.6
20200713142007 74 67 4.0 6.0 0.00 0.00 0.00 72 1016.4
20200713141505 73 72 4.0 7.0 0.00 0.00 0.00 71 1016.4
20200713141006 73 98 3.0 7.0 0.00 0.00 0.00 71 1016.5
20200713140505 72 36 3.0 6.0 0.00 0.00 0.00 71 1016.4
20200713140004 72 84 4.0 6.0 0.00 0.00 0.00 73 1016.4
20200713135501 72 72 4.0 6.0 0.00 0.00 0.00 71 1016.3
20200713135000 72 68 4.0 6.0 0.00 0.00 0.00 73 1016.3
20200713134504 72 73 4.0 6.0 0.00 0.00 0.00 73 1016.2
20200713134005 71 57 3.0 7.0 0.00 0.00 0.00 75 1016.1
20200713133500 71 71 3.0 7.0 0.00 0.00 0.00 74 1016.1
20200713133003 71 75 3.0 6.0 0.00 0.00 0.00 78 1016.1
20200713132500 71 84 3.0 6.0 0.00 0.00 0.00 76 1016.0
20200713132002 70 42 2.0 6.0 0.00 0.00 0.00 78 1016.0
20200713131501 70 79 3.0 5.0 0.00 0.00 0.00 79 1016.0
20200713130955 70 67 3.0 5.0 0.00 0.00 0.00 78 1015.9
20200713130456 69 69 3.0 5.0 0.00 0.00 0.00 78 1015.8
20200713125957 69 75 3.0 5.0 0.00 0.00 0.00 79 1015.9
20200713125455 69 53 2.0 4.0 0.00 0.00 0.00 80 1015.9
20200713124956 69 25 2.0 4.0 0.00 0.00 0.00 80 1015.9
20200713124458 68 62 2.0 4.0 0.00 0.00 0.00 82 1015.9
20200713124001 68 62 2.0 4.0 0.00 0.00 0.00 82 1015.9
20200713123449 67 62 3.0 4.0 0.00 0.00 0.00 84 1015.9
20200713122944 67 67 3.0 4.0 0.00 0.00 0.00 85 1015.9
20200713122443 67 64 3.0 4.0 0.00 0.00 0.00 86 1015.8
20200713121949 66 64 2.0 4.0 0.00 0.00 0.00 88 1015.8
20200713121439 65 73 2.0 4.0 0.00 0.00 0.00 89 1015.7
20200713120939 64 135 1.0 3.0 0.00 0.00 0.00 90 1015.7
20200713120439 63 208 1.0 2.0 0.00 0.00 0.00 91 1015.7
20200713115940 63 208 0.0 2.0 0.00 0.00 0.00 92 1015.6
20200713115437 62 208 0.0 1.0 0.00 0.00 0.00 92 1015.6
20200713114936 62 208 1.0 2.0 0.00 0.00 0.00 92 1015.6
20200713114431 61 208 1.0 2.0 0.00 0.00 0.00 92 1015.5
20200713113932 61 208 1.0 2.0 0.00 0.00 0.00 92 1015.4
20200713113431 60 208 1.0 2.0 0.00 0.00 0.00 92 1015.4
20200713112931 60 208 2.0 2.0 0.00 0.00 0.00 92 1015.4
20200713112430 60 208 1.0 2.0 0.00 0.00 0.00 92 1015.4
20200713111931 60 273 0.0 2.0 0.00 0.00 0.00 92 1015.4
20200713111427 60 273 0.0 0.0 0.00 0.00 0.00 92 1015.4
20200713110927 59 273 0.0 0.0 0.00 0.00 0.00 91 1015.4
20200713110427 59 273 0.0 0.0 0.00 0.00 0.00 90 1015.3
20200713105928 60 273 0.0 0.0 0.00 0.00 0.00 91 1015.2
20200713105424 60 273 0.0 1.0 0.00 0.00 0.00 91 1015.2
20200713104925 60 273 0.0 0.0 0.00 0.00 0.00 91 1015.2
20200713104422 60 273 1.0 1.0 0.00 0.00 0.00 90 1015.1
20200713103922 61 129 1.0 2.0 0.00 0.00 0.00 91 1015.0
20200713103419 60 129 0.0 2.0 0.00 0.00 0.00 91 1014.9
20200713102919 60 129 0.0 2.0 0.00 0.00 0.00 89 1014.9
20200713102418 61 129 1.0 2.0 0.00 0.00 0.00 88 1014.9
20200713101917 62 129 2.0 3.0 0.00 0.00 0.00 89 1014.6
20200713101411 62 129 2.0 3.0 0.00 0.00 0.00 88 1014.5
20200713100911 62 129 2.0 3.0 0.00 0.00 0.00 89 1014.5
20200713100411 63 129 2.0 3.0 0.00 0.00 0.00 88 1014.4
20200713095910 62 129 1.0 3.0 0.00 0.00 0.00 89 1014.3
20200713095411 62 129 0.0 2.0 0.00 0.00 0.00 90 1014.3
20200713094912 62 129 0.0 0.0 0.00 0.00 0.00 90 1014.4
20200713094409 62 129 0.0 0.0 0.00 0.00 0.00 90 1014.4
20200713093907 62 129 0.0 0.0 0.00 0.00 0.00 90 1014.4
20200713093407 62 129 0.0 1.0 0.00 0.00 0.00 90 1014.4
20200713092908 62 129 1.0 2.0 0.00 0.00 0.00 90 1014.4
20200713092405 62 129 1.0 2.0 0.00 0.00 0.00 90 1014.5
20200713091905 62 129 1.0 2.0 0.00 0.00 0.00 90 1014.6
20200713091404 62 129 0.0 2.0 0.00 0.00 0.00 90 1014.6
20200713090903 62 129 0.0 0.0 0.00 0.00 0.00 91 1014.5
20200713090404 62 129 0.0 0.0 0.00 0.00 0.00 91 1014.4
20200713085903 61 129 0.0 0.0 0.00 0.00 0.00 90 1014.5
20200713085401 62 129 0.0 0.0 0.00 0.00 0.00 89 1014.5
20200713084901 62 129 0.0 0.0 0.00 0.00 0.00 88 1014.3
20200713084417 63 129 0.0 2.0 0.00 0.00 0.00 88 1014.2
20200713083902 63 129 1.0 2.0 0.00 0.00 0.00 89 1014.1
20200713083402 63 129 2.0 3.0 0.00 0.00 0.00 89 1014.0
20200713082903 63 129 2.0 3.0 0.00 0.00 0.00 89 1014.0
20200713082404 63 129 3.0 3.0 0.00 0.00 0.00 88 1014.0
20200713081901 63 129 3.0 4.0 0.00 0.00 0.00 88 1013.9
20200713081400 64 129 3.0 4.0 0.00 0.00 0.00 88 1013.9
20200713080900 64 129 3.0 4.0 0.00 0.00 0.00 88 1013.9
20200713080401 64 129 3.0 4.0 0.00 0.00 0.00 87 1014.0
20200713075900 64 129 3.0 3.0 0.00 0.00 0.00 87 1014.1
20200713075401 64 129 3.0 4.0 0.00 0.00 0.00 88 1014.2
20200713074901 64 129 2.0 4.0 0.00 0.00 0.00 88 1014.2
20200713074401 64 129 1.0 2.0 0.00 0.00 0.00 88 1014.2
20200713073900 64 129 2.0 3.0 0.00 0.00 0.00 88 1014.3
20200713073401 64 129 2.0 3.0 0.00 0.00 0.00 88 1014.2
20200713072901 64 129 2.0 3.0 0.00 0.00 0.00 90 1014.4
20200713072402 63 129 2.0 3.0 0.00 0.00 0.00 90 1014.4
20200713071901 63 129 2.0 3.0 0.00 0.00 0.00 91 1014.5
20200713071401 62 129 3.0 3.0 0.00 0.00 0.00 90 1014.6
20200713070901 62 129 3.0 3.0 0.00 0.00 0.00 90 1014.5
20200713070400 63 129 2.0 3.0 0.00 0.00 0.00 89 1014.5
20200713065901 63 129 2.0 3.0 0.00 0.00 0.00 89 1014.5
20200713065400 63 129 1.0 2.0 0.00 0.00 0.00 88 1014.5
20200713064901 64 129 1.0 2.0 0.00 0.00 0.00 88 1014.5
20200713064401 64 129 1.0 2.0 0.00 0.00 0.00 88 1014.5
20200713063900 64 129 2.0 3.0 0.00 0.00 0.00 89 1014.4
20200713063401 63 129 2.0 3.0 0.00 0.00 0.00 90 1014.4
20200713062900 63 129 2.0 3.0 0.00 0.00 0.00 90 1014.3
20200713062406 63 129 2.0 4.0 0.00 0.00 0.00 89 1014.4
20200713061902 63 129 3.0 4.0 0.00 0.00 0.00 90 1014.4
20200713061403 63 129 2.0 4.0 0.00 0.00 0.00 89 1014.2
20200713060901 63 98 2.0 3.0 0.00 0.00 0.00 88 1014.2
20200713060401 64 98 2.0 6.0 0.00 0.00 0.00 88 1014.2
20200713055904 64 98 3.0 6.0 0.00 0.00 0.00 88 1014.1
20200713055406 64 98 4.0 6.0 0.00 0.00 0.00 88 1013.9
20200713054905 64 99 4.0 6.0 0.00 0.00 0.00 88 1013.9
20200713054403 64 94 4.0 6.0 0.00 0.00 0.00 88 1013.8
20200713053904 64 94 4.0 6.0 0.00 0.00 0.00 88 1014.0
20200713053401 64 90 4.0 6.0 0.00 0.00 0.00 88 1014.0
20200713052901 65 86 3.0 5.0 0.00 0.00 0.00 87 1014.0
20200713052401 65 106 3.0 4.0 0.00 0.00 0.00 87 1014.0
20200713051902 65 112 3.0 4.0 0.00 0.00 0.00 87 1014.0
20200713051400 65 123 3.0 4.0 0.00 0.00 0.00 88 1013.9
20200713050906 65 123 3.0 4.0 0.00 0.00 0.00 88 1013.8
20200713050403 65 125 3.0 4.0 0.00 0.00 0.00 89 1013.9
20200713045901 65 125 3.0 4.0 0.00 0.00 0.00 89 1013.9
20200713045402 64 125 3.0 4.0 0.00 0.00 0.00 89 1013.9
20200713044902 64 122 2.0 4.0 0.00 0.00 0.00 89 1013.9
20200713044401 65 102 2.0 3.0 0.00 0.00 0.00 87 1013.9
20200713043903 66 102 2.0 8.0 0.00 0.00 0.00 87 1014.0
20200713043401 66 94 3.0 8.0 0.00 0.00 0.00 86 1014.0
20200713042901 66 98 4.0 8.0 0.00 0.00 0.00 86 1013.9
20200713042402 66 83 4.0 8.0 0.00 0.00 0.00 86 1013.8
20200713041900 66 92 4.0 8.0 0.00 0.00 0.00 86 1013.9
20200713041401 66 94 4.0 8.0 0.00 0.00 0.00 86 1013.8
20200713040903 67 99 5.0 9.0 0.00 0.00 0.00 85 1013.7
20200713040402 67 92 5.0 9.0 0.00 0.00 0.00 85 1013.8
20200713035901 67 105 5.0 9.0 0.00 0.00 0.00 85 1013.6
20200713035401 67 92 5.0 9.0 0.00 0.00 0.00 85 1013.6
20200713034901 67 86 5.0 9.0 0.00 0.00 0.00 85 1013.6
20200713034401 67 93 5.0 9.0 0.00 0.00 0.00 85 1013.5
20200713033902 68 79 5.0 8.0 0.00 0.00 0.00 85 1013.4
20200713033400 68 97 5.0 8.0 0.00 0.00 0.00 85 1013.4
20200713032900 68 100 5.0 8.0 0.00 0.00 0.00 84 1013.2
20200713032400 68 99 5.0 7.0 0.00 0.00 0.00 84 1013.4
20200713031903 69 103 4.0 6.0 0.00 0.00 0.00 84 1013.1
20200713031405 69 104 3.0 6.0 0.00 0.00 0.00 85 1013.1
20200713030906 68 102 3.0 8.0 0.00 0.01 0.00 87 1013.1
20200713030403 68 102 4.0 8.0 0.00 0.01 0.00 87 1013.0
20200713025903 68 91 3.0 6.0 0.00 0.01 0.00 86 1012.9
20200713025403 68 82 3.0 6.0 0.00 0.02 0.00 85 1012.8
20200713024902 69 104 4.0 7.0 0.00 0.02 0.00 84 1012.8
20200713024400 69 89 4.0 7.0 0.00 0.03 0.00 83 1012.8
20200713023905 69 73 4.0 6.0 0.00 0.03 0.00 83 1012.7
20200713023400 70 69 4.0 6.0 0.00 0.03 0.00 82 1012.7
20200713022901 69 64 3.0 6.0 0.00 0.04 0.00 83 1012.7
20200713022355 70 42 3.0 5.0 0.00 0.06 0.00 81 1012.8
20200713021853 71 54 4.0 8.0 0.00 0.09 0.00 80 1012.7
20200713021352 71 48 5.0 8.0 0.00 0.22 0.00 79 1012.7
20200713020852 71 64 4.0 8.0 0.00 0.36 0.00 79 1012.7
20200713020352 70 21 4.0 5.0 0.00 0.45 0.00 81 1012.7
20200713015855 70 358 4.0 5.0 0.00 0.46 0.00 82 1012.6
20200713015344 70 358 3.0 5.0 0.00 0.46 0.00 81 1012.5
20200713014845 71 358 4.0 4.0 0.00 0.46 0.00 80 1012.5
20200713014344 71 358 4.0 5.0 0.00 0.46 0.00 80 1012.6
20200713013843 71 358 4.0 5.0 0.00 0.46 0.00 80 1012.7
20200713013340 71 358 4.0 5.0 0.00 0.46 0.00 79 1012.6
20200713012840 71 358 4.0 4.0 0.00 0.46 0.00 79 1012.6
20200713012339 72 358 4.0 5.0 0.00 0.46 0.00 79 1012.6
20200713011838 72 358 4.0 5.0 0.00 0.46 0.00 77 1012.5
20200713011337 73 354 4.0 5.0 0.00 0.46 0.00 76 1012.5
20200713010836 73 354 4.0 5.0 0.00 0.46 0.00 75 1012.5
20200713010335 74 354 5.0 6.0 0.00 0.46 0.00 73 1012.5
20200713005836 75 353 5.0 9.0 0.00 0.46 0.00 71 1012.5
20200713005333 75 352 6.0 11.0 0.00 0.46 0.00 70 1012.6
20200713004833 76 347 6.0 11.0 0.00 0.46 0.00 69 1012.6
20200713004332 76 7 6.0 8.0 0.00 0.46 0.00 69 1012.5
20200713003829 76 354 6.0 8.0 0.00 0.46 0.00 68 1012.5
20200713003330 77 351 6.0 10.0 0.00 0.46 0.00 66 1012.5
20200713002829 77 7 8.0 12.0 0.00 0.46 0.00 65 1012.6
20200713002329 78 7 8.0 12.0 0.00 0.46 0.00 65 1012.6
20200713001829 78 353 7.0 12.0 0.00 0.46 0.00 65 1012.5
20200713001328 78 7 8.0 11.0 0.00 0.46 0.00 64 1012.5
20200713000830 78 352 10.0 14.0 0.00 0.46 0.00 64 1012.4
20200713000333 79 2 11.0 15.0 0.00 0.46 0.00 62 1012.4
20200712235829 79 355 10.0 15.0 0.00 0.46 0.00 63 1012.3
20200712235329 79 349 10.0 14.0 0.00 0.46 0.00 65 1012.3
20200712234829 80 352 10.0 15.0 0.00 0.46 0.00 65 1012.2
20200712234330 80 0 10.0 15.0 0.00 0.46 0.00 62 1012.2
20200712233829 80 353 10.0 14.0 0.00 0.46 0.00 61 1012.2
20200712233329 80 3 11.0 14.0 0.00 0.46 0.00 62 1012.1
20200712232830 80 354 10.0 15.0 0.00 0.46 0.00 61 1012.2
20200712232329 80 355 10.0 16.0 0.00 0.46 0.00 60 1012.0
20200712231829 81 7 11.0 16.0 0.00 0.46 0.00 61 1012.0
20200712231328 81 1 12.0 17.0 0.00 0.46 0.00 59 1011.9
20200712230832 81 353 12.0 17.0 0.00 0.46 0.00 59 1011.9
20200712230334 81 0 11.0 16.0 0.00 0.46 0.00 61 1011.8
20200712225830 81 17 12.0 16.0 0.00 0.46 0.00 61 1011.8
20200712225329 81 354 13.0 17.0 0.00 0.46 0.00 59 1011.6
20200712224829 81 356 12.0 17.0 0.00 0.46 0.00 58 1011.5
20200712224329 81 354 12.0 16.0 0.00 0.46 0.00 59 1011.4
20200712223829 81 7 13.0 17.0 0.00 0.46 0.00 58 1011.4
20200712223329 81 22 12.0 17.0 0.00 0.46 0.00 60 1011.4
20200712222829 81 341 12.0 20.0 0.00 0.46 0.00 63 1011.4
20200712222329 81 17 13.0 20.0 0.00 0.55 0.00 62 1011.3
20200712221832 81 24 15.0 20.0 0.00 0.68 0.00 63 1011.4
20200712221329 82 17 14.0 20.0 0.00 0.69 0.00 60 1011.4
20200712220830 82 23 12.0 18.0 0.00 0.69 0.00 62 1011.4
20200712220329 82 7 13.0 17.0 0.00 0.69 0.00 61 1011.3
20200712215829 82 351 14.0 20.0 0.00 0.69 0.00 60 1011.3
20200712215329 83 1 14.0 20.0 0.00 0.71 0.00 62 1011.4
20200712214831 82 349 13.0 17.0 0.00 0.87 0.00 60 1011.4
20200712214329 82 343 13.0 18.0 0.00 0.94 0.00 62 1011.4
20200712213832 81 356 13.0 18.0 0.00 1.00 0.00 60 1011.3
20200712213331 82 7 14.0 21.0 0.00 1.02 0.00 61 1011.2
20200712212829 82 7 15.0 21.0 0.00 1.02 0.00 61 1011.3
20200712212330 82 337 14.0 20.0 0.00 1.02 0.00 62 1011.3
20200712211829 82 341 13.0 18.0 0.00 1.02 0.00 62 1011.2
20200712211328 82 25 13.0 18.0 0.00 1.02 0.00 63 1011.1
20200712210829 82 17 13.0 18.0 0.00 1.02 0.00 65 1011.1
20200712210328 82 3 13.0 19.0 0.00 1.02 0.00 62 1011.1
20200712205828 81 354 13.0 19.0 0.00 1.02 0.00 64 1011.0
20200712205329 81 352 14.0 21.0 0.00 1.02 0.00 64 1011.1
20200712204833 83 345 14.0 21.0 0.00 1.02 0.00 63 1011.1
20200712204330 83 7 12.0 18.0 0.00 1.02 0.00 65 1011.1
20200712203830 83 33 13.0 18.0 0.00 1.02 0.00 67 1011.1
20200712203329 83 17 14.0 19.0 0.00 1.02 0.00 66 1011.0
20200712202829 83 29 15.0 20.0 0.00 1.02 0.00 67 1011.0
20200712202328 82 345 15.0 20.0 0.00 1.02 0.00 66 1011.0
20200712201829 82 337 15.0 21.0 0.00 1.02 0.00 65 1011.0
20200712201329 82 0 14.0 21.0 0.00 1.02 0.00 67 1011.0
20200712200829 80 353 13.0 18.0 0.00 1.02 0.00 69 1010.9
20200712200329 81 349 11.0 17.0 0.00 1.02 0.00 67 1011.0
20200712195830 82 355 10.0 17.0 0.00 1.02 0.00 66 1010.9
20200712195329 82 17 10.0 15.0 0.00 1.02 0.00 67 1011.0
20200712194829 82 0 9.0 18.0 0.00 1.02 0.00 67 1011.0
20200712194328 82 2 9.0 18.0 0.00 1.02 0.00 68 1011.0
20200712193829 82 331 8.0 13.0 0.00 1.02 0.00 68 1011.0
20200712193328 82 318 7.0 11.0 0.00 1.02 0.00 69 1011.0
20200712192825 80 322 8.0 13.0 0.00 1.02 0.00 72 1011.2
20200712192324 80 331 8.0 13.0 0.00 1.02 0.00 72 1011.2
20200712191826 80 1 7.0 10.0 0.00 1.02 0.00 69 1011.1
20200712191324 81 340 7.0 11.0 0.00 1.02 0.00 66 1011.1
20200712190823 82 311 7.0 11.0 0.00 1.02 0.00 69 1011.0
20200712190324 82 307 7.0 10.0 0.00 1.02 0.00 68 1011.1
20200712185824 82 7 7.0 11.0 0.00 1.02 0.00 68 1010.9
20200712185320 80 338 7.0 11.0 0.00 1.02 0.00 68 1011.0
20200712184819 81 12 6.0 13.0 0.00 1.02 0.00 65 1011.0
20200712184320 82 3 5.0 13.0 0.00 1.02 0.00 63 1011.0
20200712183820 82 7 5.0 11.0 0.00 1.02 0.00 66 1011.0
20200712183320 81 341 6.0 11.0 0.00 1.02 0.00 63 1011.1
20200712182819 82 299 6.0 9.0 0.00 1.02 0.00 65 1011.0
20200712182316 81 348 6.0 11.0 0.00 1.02 0.00 66 1011.1
20200712181815 81 324 7.0 11.0 0.00 1.02 0.00 66 1011.1
20200712181316 81 307 7.0 12.0 0.00 1.02 0.00 66 1011.1
20200712180816 80 316 6.0 12.0 0.00 1.02 0.00 64 1011.0
20200712180318 80 337 6.0 11.0 0.00 1.02 0.00 70 1011.0
20200712175815 80 325 5.0 11.0 0.00 1.02 0.00 70 1011.0
20200712175311 79 300 5.0 9.0 0.00 1.02 0.00 69 1011.0
20200712174812 79 343 5.0 9.0 0.00 1.02 0.00 69 1011.0
20200712174309 80 17 4.0 8.0 0.00 1.02 0.00 69 1011.0
20200712173810 79 333 4.0 8.0 0.00 1.02 0.00 69 1011.1
20200712173334 79 63 4.0 8.0 0.00 1.02 0.00 68 1011.3
20200712172818 79 67 5.0 10.0 0.00 1.02 0.00 67 1011.2
20200712172304 79 12 6.0 10.0 0.00 1.02 0.00 66 1011.2
20200712171804 79 331 7.0 12.0 0.00 1.02 0.00 69 1011.1
20200712171304 78 50 7.0 12.0 0.00 1.02 0.00 71 1011.1
20200712170805 78 0 6.0 12.0 0.00 1.02 0.00 71 1011.3
20200712170305 78 341 5.0 12.0 0.00 1.02 0.00 73 1011.3
20200712165804 78 56 7.0 12.0 0.00 1.02 0.00 72 1011.4
20200712165307 78 355 7.0 12.0 0.00 1.02 0.00 73 1011.4
20200712164803 77 42 6.0 11.0 0.00 1.02 0.00 71 1011.3
20200712164302 77 42 6.0 10.0 0.00 1.02 0.00 71 1011.4
20200712163802 78 25 6.0 11.0 0.00 1.02 0.00 74 1011.3
20200712163304 77 31 6.0 11.0 0.00 1.02 0.00 73 1011.3
20200712162802 77 12 7.0 12.0 0.00 1.02 0.00 74 1011.3
20200712162302 77 7 8.0 13.0 0.00 1.02 0.00 76 1011.3
20200712161802 77 354 8.0 13.0 0.00 1.02 0.00 73 1011.4
20200712161303 76 23 8.0 13.0 0.00 1.02 0.00 74 1011.4
20200712160803 76 28 9.0 14.0 0.00 1.02 0.00 74 1011.4
20200712160304 76 350 9.0 14.0 0.00 1.02 0.00 76 1011.4
20200712155804 76 353 8.0 14.0 0.00 1.02 0.00 77 1011.5
20200712155308 76 7 9.0 14.0 0.00 1.02 0.00 75 1011.5
20200712154804 76 2 9.0 14.0 0.00 1.02 0.00 75 1011.4
20200712154303 76 12 8.0 14.0 0.00 1.02 0.00 75 1011.4
20200712153803 76 17 7.0 11.0 0.00 1.02 0.00 74 1011.4
20200712153305 75 355 6.0 10.0 0.00 1.02 0.00 76 1011.3
20200712152803 75 40 4.0 9.0 0.00 1.02 0.00 76 1011.3
20200712152305 75 12 4.0 9.0 0.00 1.02 0.00 79 1011.3
20200712151804 74 25 4.0 9.0 0.00 1.02 0.00 77 1011.3
20200712151303 75 7 4.0 8.0 0.00 1.02 0.00 76 1011.1
20200712150803 74 52 4.0 8.0 0.00 1.02 0.00 79 1011.1